Home > Weather > Oranjestad > Past weeks

Flag for Aruba Past Weather in Oranjestad, Aruba — Yesterday and Last 2 Weeks

Now
84 °F

Passing clouds.


Feels Like: 94 °F
Forecast: 83 / 91 °F
Wind: 23 mph from East

Location: Queen Beatrix Airport - Aruba

Current Time: Jun 28, 2016 at 11:54:00 PM

Latest Report: Jun 28, 2016 at 11:00 PM


Visibility: N/A

Pressure: 29.92 "Hg

Humidity: 79%

Dew Point: 77 °F

Location of OranjestadLocation

Past Weather in Oranjestad — Graph

°F

Oranjestad Temperature Yesterday

Maximum temperature yesterday: 90 °F (at 1:00 PM)
Minimum temperature yesterday: 81 °F (at 4:00 AM)
Average temperature yesterday: 85 °F

High & Low Weather Summary for the Past Weeks

 TemperatureHumidityPressure
High91 °F (Jun 14, 12:00 PM)94% (Jun 25, 12:00 PM)30.04 "Hg (Jun 25, 12:00 PM)
Low77 °F (Jun 25, 12:00 PM)23% (Jun 25, 8:00 AM)29.74 "Hg (Jun 25, 1:00 PM)
Average85 °F75%29.92 "Hg
* Reported Jun 13 10:00 PM — Jun 28 10:00 PM, Oranjestad, Weather by CustomWeather, © 2016

Note: Actual official high and low records may vary slightly from our data, if they occured in-between our weather recording intervals... More about our weather records

Advertising

Oranjestad Weather History for the Previous 24 Hours

Scroll right to see more
 ConditionsComfort  
Time TempWeatherWind HumidityBarometerVisibility
10:00 PM
Tue, Jun 28
84 °FPassing clouds.25 mph79%29.89 "HgN/A
9:00 PM84 °FPassing clouds.25 mph79%29.86 "HgN/A
8:00 PM84 °FPassing clouds.23 mph79%29.86 "HgN/A
7:00 PM84 °FPassing clouds.28 mph79%29.83 "HgN/A
6:00 PM86 °FPassing clouds.28 mph75%29.83 "HgN/A
5:00 PM88 °FPassing clouds.25 mph70%29.80 "HgN/A
4:00 PM90 °FPassing clouds.29 mph67%29.83 "HgN/A
3:00 PM90 °FPassing clouds.29 mph67%29.83 "HgN/A
2:00 PM90 °FPassing clouds.23 mph67%29.86 "HgN/A
1:00 PM90 °FScattered clouds.22 mph67%29.89 "HgN/A
12:00 PM90 °FScattered clouds.23 mph67%29.89 "HgN/A
11:00 AM88 °FPassing clouds.23 mph70%29.89 "HgN/A
10:00 AM88 °FScattered clouds.21 mph66%29.92 "HgN/A
9:00 AM86 °FPassing clouds.20 mph70%29.92 "HgN/A
8:00 AM84 °FPassing clouds.23 mph70%29.89 "HgN/A
7:00 AM82 °FPassing clouds.20 mph79%29.89 "HgN/A
6:00 AM82 °FPassing clouds.23 mph79%29.86 "HgN/A
5:00 AM82 °FPassing clouds.21 mph79%29.86 "HgN/A
4:00 AM82 °FPassing clouds.21 mph79%29.86 "HgN/A
1:00 AM82 °FPassing clouds.21 mph84%29.89 "HgN/A
12:00 AM82 °FPassing clouds.22 mph79%29.92 "HgN/A
11:00 PM
Mon, Jun 27
82 °FPassing clouds.24 mph79%29.92 "HgN/A
Weather by CustomWeather, © 2016

See weather overviewHow to use our weather pages